Other Surface Observations
Issued by NWS Tucson, AZ

Home | Current Version | Previous Version | Text Only | Print | Product List | Glossary On
Versions: 1 2 3 4 5 6 7 8 9 10 11 12 13 14 15 16 17 18 19 20 21 22 23 24 25 26 27 28 29 30 31 32 33 34 35 36 37 38 39 40 41 42 43 44 45 46 47 48 49 50
000
SXUS55 KTWC 020416
OSOTWC

WEATHER ROUNDUP FOR SOUTHEAST ARIZONA
NATIONAL WEATHER SERVICE TUCSON AZ
915 PM MST WED JUL 01 2015

AZZ504>506-514-020515-
LOCATION       SKY/WX    TMP DP  RH WIND       PRES   REMARKS
TUCSON         CLEAR     81  64  56 S7        29.99R
DAVIS-MONTHAN  MOCLDY    79  64  58 S9        29.98R
CHILDRENS PARK N/A       88  60  39 W3                PIMA CO DEQ
ALVERNON/22ND  N/A      N/A N/A N/A N/A               PIMA CO DEQ
CHERRY/GLENN   N/A      N/A N/A N/A N/A               PIMA CO DEQ
TANGERINE      N/A       89 N/A N/A NW3               PIMA CO DEQ
CONTL RANCH    N/A       91  60  35 W5                PIMA CO DEQ
GRANT/1ST      N/A       88  61  40 E7                PIMA CO DEQ
CRAYCROFT/22ND N/A      N/A N/A N/A N/A               PIMA CO DEQ
GOLFLINKS/KOLB N/A      N/A N/A N/A N/A               PIMA CO DEQ
AJO/12TH       N/A       87  63  45 S6                PIMA CO DEQ
SAGUARO EAST   N/A      N/A N/A N/A N/A               PIMA CO DEQ
FAIRGROUNDS    N/A       80 N/A N/A SW10              PIMA CO DEQ
SAGUARO        N/A       84  55  37 SE5               *SABINO CYN
SAN CARLOS     N/A       91  57  32 W11G21            *SAN CARLOS
GREEN VALLEY   N/A       77  64  65 SW8               PIMA CO DEQ
HORSE CAMP CYN N/A       81  56  42 W16G26            *ARAVAIPA CYN
RINCON MTNS    N/A       57  53  87 NW2               *NR MANNING CAMP
$$

AZZ509>511-020515-
LOCATION       SKY/WX    TMP DP  RH WIND       PRES   REMARKS
SAFFORD        CLEAR     87  58  37 NW22      29.94R
STRAY HORSE    N/A       68  52  57 W11G20            *
TRAIL CABIN    N/A       74  54  50 W6G15             *N OF GRANVILLE
BLACK HILLS    N/A       87  57  36 NW12G23           *N OF FT THOMAS
DRY LAKE       N/A       66  53  63 W5G12             *NATANES MTNS
NOON CREEK     N/A       81  54  40 SW5G12            *PINALENO MTNS
COLUMBINE      N/A       51  47  85 CALM              *PINALENO MTNS
GUTHRIE        N/A       74  54  50 W20G34            *SW OF GUTHRIE
$$

AZZ502-503-513-020515-
LOCATION       SKY/WX    TMP DP  RH WIND       PRES   REMARKS
NOGALES        CLEAR     70  65  84 CALM      30.09R
SELLS          N/A       82  69  66 CALM              *
SASABE         N/A       70  66  87 S4                *ALTAR VLY
HOPKINS        N/A       64  53  68 N9G16             *SANTA RITA MTNS
CARR CYN       N/A       73  52  47 S5G12             *W OF HEREFORD
$$

AZZ507-508-512-020515-
LOCATION       SKY/WX    TMP DP  RH WIND       PRES   REMARKS
SIERRA VISTA   CLEAR     74  59  59 W13       30.13R
DOUGLAS        CLEAR     77  56  48 CALM      30.08R
EMPIRE MTNS    N/A       69  64  84 SW6               *LAS CIENEGAS NCA
MULESHOE RANCH N/A       75  62  64 NW4               *PRESERVE
HEADQUARTERS   N/A       75  58  55 S3G10             *CHIRICAHUA MTNS
$$

.............................NOTES.............................
THIS IS AN AUTOMATED COLLECTIVE WITH MINIMAL QUALITY CONTROL.
PIMA CO DEQ SITES HAVE NONSTANDARD WIND SENSOR HEIGHTS.
PIMA CO DEQ SITES DO NOT REPORT WIND GUSTS.
* INDICATES WIND SENSORS LOCATED AT 20 FEET INSTEAD OF 33 FEET.
..............................KEY..............................
SKY/WX - SKY CONDITION/WEATHER
TMP    - TEMPERATURE IN FAHRENHEIT
DP     - DEWPOINT IN FAHRENHEIT
RH     - RELATIVE HUMIDITY IN PERCENT
WIND   - DIRECTION AND SPEED IN MILES PER HOUR (MPH)
VRB    - VARIABLE WIND DIRECTION
PRES   - MEAN SEA LEVEL PRESSURE IN INCHES OF MERCURY
         F - FALLING PRESSURE   R - RISING PRESSURE
         S - STEADY PRESSURE
VSB    - VISIBILITY IN MILES
HX     - HEAT INDEX IN FAHRENHEIT
WCI    - WIND CHILL INDEX IN FAHRENHEIT
N/A    - NOT AVAILABLE
AFB    - AIR FORCE BASE
         DAVIS-MONTHAN IS DAVIS-MONTHAN AIR FORCE BASE
CYN    - CANYON
MTNS   - MOUNTAINS
NCA    - NATIONAL CONSERVATION AREA
NR     - NEAR
VLY    - VALLEY
CONTL  - CONTINENTAL
PIMA CO DEQ - PIMA COUNTY DEPT OF ENVIRONMENTAL QUALITY



USA.gov is the U.S. government's official web portal to all federal, state and local government web resources and services.